User: anonymous   Login
Location: Castelbiague
(43.0361°N, 0.9246°E)
Time: 02:04:31
(UTC+00:00)
Language:

Cosmos 1844 - Orbit

View from above orbital plane
View from above orbital plane
View from above satellite
View from above satellite

Ground track
Ground track

The orbit data is extracted from the following two-line orbital elements,

1 17973U 87041A   21264.63470759 -.00000127  00000-0 -40721-4 0  9993
2 17973  70.8987 230.9985 0033420 306.4254  53.3787 14.14134137773313
Epoch (UTC): 21 September 2021 15:13:58
Eccentricity: 0.0033420
inclination: 70.8987°
perigee height: 821 km
apogee height: 869 km
right ascension of ascending node: 230.9985°
argument of perigee: 306.4254°
revolutions per day: 14.14134137
mean anomaly at epoch: 53.3787°
orbit number at epoch: 77331

The dashed part of the orbit path shows where the satellite is in the earth's shadow,  

DLR